RCM-2 (44324 NORAD) Tracking and Keplerian Element Data

This shows tracking and keplerian element data for the satellite.

Feedback or suggestion? Click here.




ElementValue
Catalog44324
NameRCM-2
Epoch Orbit412
Epoch Day191.28293016
Epoch Year2019
RAAN198.0009
Inclination97.7655
Eccentricity0.0015959
Argument of Perigee157.6137
Mean Anonmoly202.5759
Mean Motion14.91217865
Decay Rate-7.4E-07
L11 44324U 19033C 19191.28293016 -.00000074 00000-0 -17662-5 0 9995
L22 44324 97.7655 198.0009 0015959 157.6137 202.5759 14.91217865 4125

Live tracking and technical data element details for RCM-2 (NORAD 44324). RCM-2 can be tracked NOW for your location showing map with azimuth and elevation plus other details from your city location.

Track the satellite on the map from your city or location and see movement details for azimuth, elevation, latitude, longitude, range, height, and movement on the map or in text.







IsCatalogInMostPopularTable: catalog: 44324, numindb: 10
Update: records affected: 1



GetName: 44324 RCM-2

Hit Count: updated at: Mon, 22 Jul 2019 03:14:57 GMT